Tracking 29892 objects as of 21-Nov-2024
HD Live streaming from Space Station
objects crossing your sky now

ONEWEB-0369

Track ONEWEB-0369 now!
10-day predictions
ONEWEB-0369 is classified as:


NORAD ID: 49295
Int'l Code: 2021-090S
Perigee: 1,191.5 km
Apogee: 1,194.3 km
Inclination: 87.9 °
Period: 109.1 minutes
Semi major axis: 7563 km
RCS: Unknown
Launch date: October 14, 2021
Source: United Kingdom (UK)
Launch site: VOSTOCHNY COSMODROME (VOSTO)
Your satellite tracking list
FENGYUN 1C DEB
Track 1 satellite(s)




NASA's NSSDC Master Catalog

Two Line Element Set (TLE):
1 49295U 21090S   24325.24884166  .00000067  00000-0  13453-3 0  9998
2 49295  87.9190  59.0997 0001797 100.2604 259.8731 13.19725172150718
Source of the keplerian elements: AFSPC